Tracking 29969 objects as of 6-Dec-2024
HD Live streaming from Space Station
objects crossing your sky now

IRIDIUM 33 DEB

Track IRIDIUM 33 DEB now!
10-day predictions


NORAD ID: 35480
Int'l Code: 1997-051QA
Perigee: 734.0 km
Apogee: 751.5 km
Inclination: 86.4 °
Period: 99.5 minutes
Semi major axis: 7113 km
RCS: 0.0115 m2 (small)
Launch date: September 14, 1997
Source: United States (US)
Launch site: TYURATAM MISSILE AND SPACE COMPLEX (TTMTR)

Note: This is SATELLITE DEBRIS
Your satellite tracking list
Your tracking list is empty




NASA's NSSDC Master Catalog

Two Line Element Set (TLE):
1 35480U 97051QA  24336.32360411  .00005932  00000-0  16262-2 0  9998
2 35480  86.3604 187.6900 0012309 285.6015  74.3829 14.46956531818837
Source of the keplerian elements: AFSPC